Weather History for Worcester, MA

Change the Weather History Date:

Wednesday, June 6, 2012

  Actual Average Record
Temperature  
Mean Temperature 56 °F 62 °F  
Max Temperature 62 °F 72 °F 94 °F (1925)
Min Temperature 49 °F 53 °F 41 °F (1945)
Degree Days  
Heating Degree Days 9 4  
Month to date heating degree days 55 29  
Since 1 June heating degree days 55 29  
Since 1 July heating degree days 5270 6663  
Cooling Degree Days 0 2  
Month to date cooling degree days 0 9  
Year to date cooling degree days 61 31  
Since 1 June cooling degree days 0 9  
Growing Degree Days 4 (Base 50)    
Moisture  
Dew Point 50 °F    
Average Humidity 82    
Maximum Humidity 100    
Minimum Humidity 64    
Precipitation  
Precipitation 0.80 in 0.16 in 3.50 in (1986)
Month to date precipitation 3.05 0.94  
Year to date precipitation 16.28 20.17  
Sea Level Pressure  
Sea Level Pressure 29.98 in    
Wind  
Wind Speed 5 mph (ESE)    
Max Wind Speed 20 mph    
Max Gust Speed 24 mph    
Visibility 8 miles    
Events Rain , Thunderstorm    
T = Trace of Precipitation, MM = Missing Value Source: NWS Daily Summary

Daily Weather History Graph

Daily Weather History Graph

Search for Another Location

Airport:

Trip Planner

Search our weather history database for the weather conditions in past years. The results will help you decide how hot, cold, wet, or windy it might be!

Date:

Astronomy

Jun. 06, 2012 Rise Set
Actual Time 5:11 AM EDT 8:21 PM EDT
Civil Twilight 4:37 AM EDT 8:55 PM EDT
Nautical Twilight 3:53 AM EDT 9:39 PM EDT
Astronomical Twilight 3:00 AM EDT 10:32 PM EDT
Moon 10:28 PM EDT (6/6) 7:30 AM EDT (6/6)
Length of Visible Light 16h 18m
Length of Day
15h 09m
Waning Gibbous, 93% of the Moon is Illuminated
Jun 6
Waning Gibbous
Jun 11
Last Quarter
Jun 19
New
Jun 26
First Quarter
Jul 3
Full

Hourly Weather History & Observations

Time (EDT) Temp. Dew Point Humidity Pressure Visibility Wind Dir Wind Speed Gust Speed Precip Events Conditions
12:54 AM 50.0 °F 48.0 °F 93% 29.96 in 10.0 mi SW 4.6 mph - N/A   Overcast
1:29 AM 50.0 °F 48.2 °F 94% 29.95 in 10.0 mi ENE 4.6 mph - 0.00 in Rain Light Rain
1:43 AM 50.0 °F 48.2 °F 94% 29.96 in 4.0 mi NE 4.6 mph - 0.01 in Rain Light Rain
1:50 AM 50.0 °F 48.2 °F 94% 29.96 in 2.0 mi ENE 4.6 mph - 0.03 in Rain Heavy Rain
1:54 AM 50.0 °F 48.9 °F 96% 29.96 in 1.8 mi Calm Calm - 0.09 in Rain Heavy Rain
1:56 AM 50.0 °F 50.0 °F 100% 29.95 in 2.0 mi WSW 5.8 mph - 0.03 in Rain Heavy Rain
2:00 AM 50.0 °F 48.2 °F 94% 29.94 in 3.0 mi WSW 5.8 mph - 0.04 in Rain Light Rain
2:54 AM 50.0 °F 48.2 °F 94% 29.94 in 10.0 mi WSW 5.8 mph - N/A   Scattered Clouds
3:54 AM 48.9 °F 48.0 °F 97% 29.95 in 10.0 mi West 5.8 mph - N/A   Scattered Clouds
4:54 AM 50.0 °F 48.0 °F 93% 29.96 in 10.0 mi WNW 8.1 mph - N/A   Mostly Cloudy
5:54 AM 51.1 °F 48.0 °F 89% 29.97 in 10.0 mi WNW 8.1 mph - N/A   Mostly Cloudy
6:54 AM 53.1 °F 50.0 °F 89% 29.97 in 10.0 mi WNW 5.8 mph - N/A   Overcast
7:54 AM 54.0 °F 50.0 °F 86% 29.98 in 10.0 mi West 4.6 mph - N/A   Overcast
8:54 AM 57.0 °F 50.0 °F 77% 29.99 in 10.0 mi Calm Calm - N/A   Overcast
9:39 AM 57.2 °F 51.8 °F 82% 29.99 in 10.0 mi Calm Calm - N/A   Overcast
9:54 AM 57.9 °F 52.0 °F 81% 30.00 in 10.0 mi East 4.6 mph - N/A   Mostly Cloudy
10:03 AM 57.2 °F 51.8 °F 82% 29.99 in 10.0 mi ENE 5.8 mph - N/A   Overcast
10:10 AM 57.2 °F 51.8 °F 82% 29.99 in 10.0 mi East 3.5 mph - N/A   Overcast
10:18 AM 57.2 °F 51.8 °F 82% 29.99 in 10.0 mi Calm Calm - N/A   Overcast
10:54 AM 60.1 °F 51.1 °F 72% 29.99 in 10.0 mi NE 5.8 mph - N/A   Mostly Cloudy
11:54 AM 60.1 °F 48.9 °F 67% 29.98 in 10.0 mi SE 6.9 mph - N/A   Overcast
12:06 PM 60.8 °F 48.2 °F 63% 29.97 in 10.0 mi Variable 4.6 mph - N/A   Overcast
12:17 PM 60.8 °F 50.0 °F 68% 29.97 in 10.0 mi ENE 4.6 mph - N/A   Overcast
12:54 PM 60.1 °F 50.0 °F 69% 29.97 in 10.0 mi South 5.8 mph - N/A   Overcast
1:54 PM 60.1 °F 51.1 °F 72% 29.96 in 8.0 mi SSW 4.6 mph - 0.00 in Rain Rain
2:16 PM 55.4 °F 51.8 °F 88% 29.97 in 1.5 mi North 19.6 mph 24.2 mph 0.06 in Rain Heavy Rain
2:26 PM 53.6 °F 50.0 °F 88% 29.97 in 0.8 mi NNE 15.0 mph 23.0 mph 0.42 in Rain Heavy Rain
2:28 PM 53.6 °F 50.0 °F 88% 29.97 in 1.0 mi NNE 11.5 mph 21.9 mph 0.47 in Rain Heavy Rain
2:35 PM 53.6 °F 50.0 °F 88% 29.97 in 1.2 mi NE 8.1 mph - 0.58 in Rain , Thunderstorm Heavy Thunderstorms and Rain
2:42 PM 53.6 °F 50.0 °F 88% 29.97 in 3.0 mi NE 6.9 mph 16.1 mph 0.63 in Rain , Thunderstorm Thunderstorms and Rain
2:54 PM 54.0 °F 51.1 °F 90% 29.99 in 10.0 mi NE 4.6 mph - 0.63 in Rain , Thunderstorm Light Thunderstorms and Rain
3:54 PM 59.0 °F 48.9 °F 69% 29.97 in 10.0 mi ESE 4.6 mph - 0.03 in   Scattered Clouds
4:54 PM 57.9 °F 51.1 °F 78% 29.98 in 10.0 mi East 3.5 mph - N/A   Overcast
5:54 PM 57.2 °F 51.8 °F 82% 29.96 in 10.0 mi SE 5.8 mph - N/A   Mostly Cloudy
6:54 PM 57.0 °F 52.0 °F 83% 29.98 in 10.0 mi South 4.6 mph - N/A   Mostly Cloudy
7:51 PM 57.2 °F 53.6 °F 88% 29.99 in 10.0 mi South 4.6 mph - N/A   Overcast
7:54 PM 57.0 °F 53.1 °F 87% 29.99 in 10.0 mi South 4.6 mph - N/A   Overcast
8:54 PM 55.0 °F 53.1 °F 93% 30.00 in 10.0 mi SSW 4.6 mph - N/A   Mostly Cloudy
9:54 PM 53.1 °F 51.1 °F 93% 30.01 in 10.0 mi Calm Calm - N/A   Clear
10:54 PM 53.1 °F 51.1 °F 93% 30.00 in 10.0 mi Calm Calm - N/A   Clear
11:21 PM 51.8 °F 50.0 °F 94% 30.00 in 10.0 mi Calm Calm - N/A   Scattered Clouds
11:30 PM 51.8 °F 50.0 °F 94% 30.00 in 10.0 mi SW 4.6 mph - N/A   Mostly Cloudy
11:54 PM 52.0 °F 51.1 °F 97% 30.00 in 10.0 mi WSW 5.8 mph - N/A   Scattered Clouds